• Join FlightAware (Why Join?)
  • Login
  • US Flag 
03:45PM EDT


 

Airport Tracker/Info


-or-


 

Live Flight TrackerFlight Track Log ✈ N2317S ✈ 29-Oct-2013 ✈ KBTV - KSFM

Flight Track Log - Related Links

Times and Time Zones

All times are in EDT time to prevent confusion due to time zone crossing. See the N2317S flight status page for this flight to view local times or setup timezone preferences in your user account.

Time Position Orientation Groundspeed Altitude Reporting Facility
EDT Latitude Longitude Course Direction KTS MPH feet Rate Location/Type
08:12AM 44.4247 -73.0544 121° Southeast 131 151 2,800  Level Boston Center
08:13AM 44.4050 -73.0069 120° Southeast 132 152 4,000 1,140 Climbing Boston Center
08:14AM 44.3869 -72.9631 120° Southeast 132 152 5,200 1,080 Climbing Boston Center
08:15AM 44.3686 -72.9200 121° Southeast 130 150 6,300 1,140 Climbing Boston Center
08:16AM 44.3594 -72.8883 121° Southeast  Level Estimated
08:16AM 44.3489 -72.8739 121° Southeast 130 150 7,500  Level Boston Center
08:17AM 44.3406 -72.8442 121° Southeast  Level FlightAware Approximate
08:17AM 44.3303 -72.8297 120° Southeast 132 152 8,600  Level Boston Center
08:18AM 44.3111 -72.7847 121° Southeast 136 157 9,500 420 Climbing Boston Center
08:19AM 44.2814 -72.7214 123° Southeast 185 213 9,500  Level Boston Center
08:20AM 44.2531 -72.6558 121° Southeast 198 228 9,500  Level Boston Center
08:21AM 44.2250 -72.5897 121° Southeast 201 231 9,500  Level Boston Center
08:22AM 44.1964 -72.5231 121° Southeast 202 232 9,500  Level Boston Center
08:23AM 44.1644 -72.4519 122° Southeast 202 232 9,500  Level Boston Center
08:24AM 44.1356 -72.3861 121° Southeast 202 232 9,500  Level Boston Center
08:25AM 44.1064 -72.3192 121° Southeast 204 235 9,500  Level Boston Center
08:26AM 44.0786 -72.2508 119° Southeast 204 235 9,500  Level Boston Center
08:27AM 44.0486 -72.1833 122° Southeast 206 237 9,500  Level Boston Center
08:28AM 44.0206 -72.1167 120° Southeast 201 231 9,500  Level Boston Center
08:29AM 43.9914 -72.0506 122° Southeast 202 232 9,500  Level Boston Center
08:30AM 43.9617 -71.9831 121° Southeast 203 234 9,500  Level Boston Center
08:31AM 43.9317 -71.9147 121° Southeast 205 236 9,500  Level Boston Center
08:32AM 43.9014 -71.8472 122° Southeast 206 237 9,500  Level Boston Center
08:33AM 43.8683 -71.7861 127° Southeast 204 235 9,500 -60 Level Boston Center
08:34AM 43.8253 -71.7197 132° Southeast 199 229 9,400 -180 Descending Boston Center
08:35AM 43.7878 -71.6617 132° Southeast 202 232 9,200 -360 Descending Boston Center
08:36AM 43.7517 -71.6011 130° Southeast 203 234 8,800 -360 Descending Boston Center
08:37AM 43.7189 -71.5453 129° Southeast 192 221 8,500 -420 Descending Boston Center
08:38AM 43.6875 -71.4892 128° Southeast 184 212 8,000 -540 Descending Boston Center
08:39AM 43.6514 -71.4275 129° Southeast 188 216 7,400 -600 Descending Boston Center
08:40AM 43.6203 -71.3764 130° Southeast 178 205 6,900 -540 Descending Boston Center
08:41AM 43.5889 -71.3269 131° Southeast 174 200 6,400 -540 Descending Boston Center
08:42AM 43.5603 -71.2764 128° Southeast 170 196 5,900 -540 Descending Boston Center
08:43AM 43.5308 -71.2275 130° Southeast 169 194 5,400 -540 Descending Boston Center
08:44AM 43.5000 -71.1764 130° Southeast 164 189 4,900 -540 Descending Boston Center
08:45AM 43.4731 -71.1264 127° Southeast 163 188 4,300 -600 Descending Boston Center
08:46AM 43.4464 -71.0717 124° Southeast 170 196 3,800 -540 Descending Boston Center
08:47AM 43.4197 -71.0211 126° Southeast 166 191 3,300 -360 Descending Boston Center
08:48AM 43.3928 -70.9708 126° Southeast 157 181 3,100 -360 Descending Boston Center
08:49AM 43.3667 -70.9333 134° Southeast 128 147 2,700 -300 Descending KA90
08:51AM 43.3317 -70.8511 120° Southeast 126 145 2,200 -300 Descending Boston Center
08:52AM 43.3450 -70.8131 64° Northeast 118 136 1,900 -480 Descending Boston Center
08:53AM 43.3611 -70.7769 58° Northeast 106 122 1,300 -540 Descending Boston Center
08:54AM 43.3747 -70.7469 58° Northeast 96 110 800 -300 Descending Boston Center
08:55AM 43.3853 -70.7228 59° Northeast 93 107 700 -120 Descending Boston Center